カタログに戻る

STARLETTE

運用中科学LEO
NORAD 7646·PAYLOAD·🇫🇷 France

打ち上げ Feb 6, 1975 から Guiana Space Centre

Loading…

次のパス (今後24時間)

TLE

最新Source: CelesTrak SupGP

元期: Sep 14, 2026, 00:00 UTC

1 07646C 75010A   26257.00000000 -.00000011  00000+0 -84558-5 0  2573
2 07646  49.8218 114.0388 0205637 356.4474 309.3510 13.82351656    10

AllMySatでSTARLETTEをリアルタイム追跡

Download on the App Store